QPF
0.04 0.05 0.03 0.01 0.01 0.01 0.01 0.01 0.01 0.01 0.00 0.01 0.01 0.00 0.00 0.00 0.00 0.01 0.01 0.01 0.01 0.00 0.01 0.01 0.01 0.01 0.01 0.02 0.02 0.02 0.02 0.02 0.02 0.02 0.03 0.02 0.01 0.01 0.00 0.00 0.01 0.01 0.01 0.01
0.04 0.04 0.03 0.01 0.01 0.01 0.01 0.01 0.01 0.01 0.00 0.01 0.00 0.00 0.00 0.00 0.00 0.00 0.00 0.01 0.01 0.01 0.01 0.01 0.01 0.01 0.02 0.02 0.02 0.01 0.01 0.02 0.02 0.02 0.02 0.02 0.01 0.01 0.00 0.00 0.00 0.01 0.01 0.01
0.04 0.03 0.02 0.02 0.01 0.01 0.01 0.01 0.01 0.01 0.01 0.01 0.00 0.00 0.00 0.00 0.00 0.00 0.00 0.00 0.01 0.02 0.02 0.01 0.01 0.02 0.03 0.03 0.02 0.01 0.01 0.01 0.01 0.02 0.02 0.02 0.03 0.02 0.01 0.00 0.00 0.00 0.00 0.01
0.03 0.02 0.02 0.02 0.02 0.01 0.01 0.00 0.01 0.01 0.02 0.01 0.00 0.00 0.00 0.00 0.00 0.00 0.00 0.00 0.01 0.02 0.02 0.02 0.03 0.03 0.03 0.04 0.04 0.02 0.01 0.01 0.01 0.01 0.02 0.02 0.02 0.03 0.02 0.01 0.00 0.00 0.00 0.00
0.02 0.01 0.01 0.02 0.02 0.02 0.01 0.00 0.01 0.01 0.01 0.01 0.01 0.00 0.00 0.00 0.00 0.00 0.00 0.00 0.01 0.02 0.02 0.02 0.02 0.03 0.03 0.04 0.05 0.05 0.03 0.02 0.02 0.02 0.02 0.03 0.03 0.02 0.02 0.02 0.02 0.01 0.01 0.00
0.01 0.01 0.01 0.01 0.02 0.02 0.01 0.01 0.01 0.01 0.02 0.01 0.00 0.00 0.00 0.00 0.00 0.00 0.00 0.00 0.00 0.01 0.01 0.02 0.02 0.02 0.02 0.03 0.05 0.07 0.08 0.06 0.04 0.02 0.02 0.02 0.03 0.02 0.02 0.02 0.03 0.02 0.02 0.01
0.01 0.00 0.00 0.01 0.02 0.02 0.02 0.02 0.02 0.02 0.02 0.01 0.00 0.00 0.00 0.00 0.00 0.00 0.00 0.00 0.00 0.00 0.01 0.01 0.02 0.02 0.02 0.03 0.06 0.07 0.07 0.06 0.05 0.04 0.03 0.02 0.02 0.02 0.02 0.02 0.01 0.02 0.02 0.02
0.01 0.01 0.00 0.01 0.02 0.02 0.01 0.01 0.02 0.02 0.01 0.01 0.00 0.00 0.00 0.00 0.00 0.00 0.00 0.00 0.00 0.01 0.01 0.01 0.01 0.02 0.02 0.03 0.04 0.05 0.05 0.06 0.06 0.06 0.04 0.03 0.03 0.03 0.03 0.03 0.03 0.02 0.02 0.03
0.01 0.01 0.00 0.00 0.00 0.01 0.02 0.01 0.01 0.02 0.01 0.01 0.00 0.00 0.00 0.00 0.00 0.00 0.00 0.00 0.00 0.00 0.00 0.01 0.01 0.02 0.02 0.03 0.02 0.03 0.04 0.04 0.05 0.06 0.06 0.04 0.04 0.03 0.04 0.04 0.05 0.05 0.05 0.04
0.02 0.02 0.01 0.01 0.01 0.01 0.01 0.02 0.02 0.03 0.02 0.01 0.00 0.00 0.00 0.00 0.00 0.00 0.00 0.00 0.00 0.00 0.00 0.00 0.00 0.01 0.02 0.02 0.02 0.01 0.01 0.02 0.03 0.04 0.04 0.04 0.04 0.04 0.03 0.03 0.03 0.04 0.04 0.04
0.03 0.03 0.02 0.01 0.02 0.02 0.02 0.01 0.02 0.03 0.03 0.02 0.01 0.00 0.00 0.00 0.00 0.00 0.00 0.00 0.00 0.00 0.00 0.00 0.00 0.00 0.01 0.01 0.01 0.01 0.01 0.01 0.01 0.02 0.02 0.02 0.02 0.02 0.03 0.03 0.03 0.02 0.02 0.02
0.03 0.03 0.02 0.01 0.01 0.02 0.02 0.02 0.02 0.04 0.03 0.02 0.02 0.00 0.00 0.00 0.00 0.00 0.00 0.00 0.00 0.00 0.00 0.00 0.00 0.00 0.01 0.01 0.01 0.01 0.01 0.01 0.01 0.01 0.01 0.01 0.02 0.02 0.02 0.02 0.02 0.02 0.02 0.01
0.02 0.03 0.02 0.01 0.01 0.02 0.02 0.01 0.01 0.02 0.03 0.02 0.01 0.00 0.00 0.00 0.00 0.00 0.00 0.00 0.00 0.00 0.00 0.00 0.01 0.01 0.01 0.01 0.00 0.00 0.00 0.00 0.00 0.00 0.01 0.01 0.01 0.01 0.02 0.02 0.02 0.02 0.02 0.02
0.04 0.04 0.02 0.01 0.00 0.01 0.01 0.01 0.00 0.01 0.02 0.01 0.00 0.00 0.00 0.00 0.00 0.00 0.00 0.00 0.00 0.00 0.00 0.00 0.01 0.01 0.01 0.01 0.01 0.01 0.01 0.01 0.01 0.01 0.00 0.00 0.00 0.01 0.01 0.02 0.02 0.01 0.02 0.02
0.04 0.03 0.01 0.00 0.00 0.01 0.01 0.01 0.00 0.01 0.01 0.01 0.00 0.00 0.00 0.00 0.00 0.00 0.00 0.00 0.00 0.00 0.00 0.01 0.00 0.01 0.01 0.01 0.01 0.01 0.02 0.01 0.01 0.01 0.00 0.00 0.00 0.01 0.01 0.01 0.02 0.02 0.01 0.02
0.02 0.02 0.01 0.01 0.00 0.01 0.01 0.00 0.00 0.00 0.00 0.00 0.00 0.00 0.00 0.00 0.00 0.00 0.00 0.00 0.00 0.00 0.01 0.01 0.00 0.01 0.01 0.01 0.01 0.01 0.01 0.01 0.00 0.01 0.01 0.01 0.01 0.01 0.01 0.02 0.02 0.02 0.02 0.02
0.02 0.02 0.02 0.01 0.00 0.01 0.01 0.00 0.00 0.00 0.00 0.00 0.00 0.00 0.00 0.00 0.00 0.00 0.00 0.00 0.00 0.01 0.01 0.01 0.01 0.01 0.01 0.01 0.01 0.01 0.01 0.00 0.00 0.00 0.01 0.01 0.01 0.01 0.01 0.01 0.02 0.02 0.02 0.02
0.03 0.03 0.03 0.02 0.01 0.01 0.00 0.00 0.00 0.00 0.00 0.00 0.00 0.00 0.00 0.00 0.00 0.00 0.00 0.00 0.00 0.01 0.01 0.01 0.01 0.01 0.01 0.01 0.01 0.01 0.00 0.00 0.00 0.01 0.00 0.01 0.01 0.01 0.01 0.01 0.01 0.02 0.02 0.02
0.02 0.03 0.04 0.03 0.02 0.01 0.00 0.00 0.00 0.00 0.00 0.00 0.00 0.00 0.00 0.00 0.00 0.00 0.00 0.00 0.00 0.00 0.00 0.00 0.00 0.00 0.01 0.01 0.01 0.00 0.00 0.00 0.00 0.00 0.00 0.00 0.00 0.01 0.01 0.01 0.01 0.02 0.02 0.02
0.01 0.02 0.03 0.03 0.02 0.01 0.00 0.00 0.00 0.00 0.01 0.00 0.00 0.00 0.00 0.00 0.00 0.00 0.00 0.00 0.00 0.00 0.00 0.00 0.00 0.00 0.00 0.00 0.00 0.00 0.00 0.00 0.00 0.00 0.00 0.00 0.00 0.01 0.01 0.01 0.01 0.01 0.01 0.01
0.02 0.02 0.03 0.02 0.02 0.01 0.00 0.00 0.00 0.01 0.01 0.00 0.00 0.00 0.00 0.01 0.00 0.00 0.00 0.00 0.00 0.00 0.00 0.00 0.00 0.00 0.00 0.00 0.00 0.00 0.00 0.00 0.01 0.01 0.01 0.00 0.01 0.01 0.01 0.01 0.01 0.01 0.01 0.01
0.01 0.01 0.01 0.01 0.02 0.01 0.00 0.00 0.01 0.01 0.00 0.00 0.00 0.00 0.00 0.00 0.00 0.00 0.00 0.00 0.00 0.00 0.00 0.00 0.00 0.00 0.00 0.00 0.00 0.00 0.00 0.01 0.01 0.01 0.01 0.01 0.01 0.01 0.01 0.01 0.01 0.01 0.00 0.00
0.01 0.01 0.01 0.01 0.01 0.00 0.01 0.01 0.01 0.01 0.01 0.01 0.00 0.00 0.00 0.00 0.00 0.00 0.00 0.00 0.00 0.00 0.00 0.00 0.00 0.00 0.00 0.00 0.00 0.00 0.00 0.01 0.01 0.01 0.02 0.02 0.02 0.02 0.02 0.02 0.01 0.01 0.00 0.01
0.01 0.01 0.01 0.01 0.00 0.00 0.00 0.00 0.00 0.00 0.01 0.00 0.00 0.00 0.00 0.00 0.00 0.00 0.00 0.00 0.00 0.00 0.00 0.00 0.00 0.00 0.00 0.00 0.00 0.00 0.00 0.01 0.01 0.01 0.02 0.02 0.02 0.03 0.03 0.01 0.01 0.00 0.00 0.01
0.00 0.01 0.01 0.00 0.00 0.00 0.00 0.00 0.00 0.00 0.00 0.00 0.00 0.00 0.00 0.00 0.00 0.00 0.00 0.00 0.00 0.00 0.00 0.00 0.00 0.00 0.00 0.00 0.00 0.00 0.00 0.01 0.01 0.01 0.01 0.02 0.02 0.03 0.02 0.01 0.01 0.01 0.01 0.01
0.00 0.01 0.01 0.01 0.00 0.01 0.00 0.00 0.00 0.00 0.00 0.00 0.00 0.00 0.00 0.00 0.00 0.00 0.00 0.00 0.00 0.00 0.00 0.00 0.00 0.00 0.00 0.00 0.00 0.00 0.00 0.01 0.01 0.01 0.01 0.01 0.02 0.02 0.01 0.01 0.01 0.01 0.01 0.01
MSLP
1019.18 1019.70 1020.23 1020.73 1021.19 1021.57 1021.87 1022.07 1022.15 1022.13 1022.00 1021.77 1021.48 1021.14 1020.79 1020.47 1020.20 1020.00 1019.87 1019.81 1019.82 1019.89 1020.00 1020.15 1020.34 1020.56 1020.81 1021.10 1021.41 1021.74 1022.07 1022.39 1022.68 1022.94 1023.17 1023.38 1023.57 1023.76 1023.96 1024.18 1024.42 1024.68 1024.95 1025.21
1020.16 1020.66 1021.14 1021.57 1021.93 1022.21 1022.40 1022.50 1022.51 1022.41 1022.22 1021.95 1021.62 1021.25 1020.86 1020.49 1020.18 1019.92 1019.74 1019.64 1019.61 1019.64 1019.73 1019.86 1020.03 1020.24 1020.48 1020.75 1021.05 1021.36 1021.68 1021.97 1022.24 1022.48 1022.68 1022.85 1023.01 1023.16 1023.33 1023.53 1023.75 1024.01 1024.28 1024.57
1021.08 1021.56 1021.99 1022.35 1022.64 1022.83 1022.94 1022.96 1022.89 1022.72 1022.47 1022.15 1021.76 1021.34 1020.92 1020.52 1020.16 1019.88 1019.68 1019.55 1019.50 1019.51 1019.58 1019.69 1019.84 1020.01 1020.22 1020.45 1020.72 1020.99 1021.27 1021.54 1021.77 1021.98 1022.14 1022.28 1022.39 1022.50 1022.62 1022.78 1022.97 1023.21 1023.49 1023.79
1021.85 1022.31 1022.71 1023.03 1023.27 1023.42 1023.48 1023.44 1023.31 1023.08 1022.77 1022.38 1021.93 1021.46 1020.98 1020.54 1020.16 1019.86 1019.65 1019.53 1019.48 1019.49 1019.55 1019.64 1019.75 1019.87 1020.03 1020.20 1020.40 1020.62 1020.84 1021.06 1021.26 1021.43 1021.56 1021.65 1021.71 1021.77 1021.84 1021.94 1022.10 1022.31 1022.58 1022.90
1022.41 1022.86 1023.25 1023.57 1023.80 1023.95 1024.00 1023.94 1023.78 1023.50 1023.12 1022.66 1022.13 1021.58 1021.05 1020.56 1020.16 1019.85 1019.65 1019.55 1019.53 1019.55 1019.61 1019.67 1019.74 1019.81 1019.89 1019.98 1020.09 1020.24 1020.39 1020.56 1020.71 1020.83 1020.91 1020.96 1020.97 1020.98 1021.00 1021.05 1021.17 1021.36 1021.61 1021.94
1022.75 1023.20 1023.61 1023.96 1024.24 1024.43 1024.51 1024.46 1024.29 1023.97 1023.53 1022.99 1022.37 1021.73 1021.12 1020.57 1020.14 1019.84 1019.66 1019.59 1019.60 1019.65 1019.72 1019.77 1019.79 1019.80 1019.79 1019.79 1019.81 1019.85 1019.93 1020.02 1020.12 1020.19 1020.23 1020.23 1020.20 1020.16 1020.13 1020.13 1020.21 1020.37 1020.61 1020.94
1022.90 1023.36 1023.82 1024.23 1024.59 1024.85 1025.00 1024.99 1024.82 1024.48 1023.97 1023.34 1022.62 1021.88 1021.17 1020.57 1020.10 1019.80 1019.64 1019.61 1019.67 1019.76 1019.85 1019.89 1019.88 1019.82 1019.73 1019.62 1019.53 1019.48 1019.47 1019.49 1019.52 1019.54 1019.54 1019.50 1019.43 1019.33 1019.25 1019.22 1019.25 1019.38 1019.61 1019.94
1022.91 1023.41 1023.92 1024.41 1024.86 1025.22 1025.45 1025.50 1025.34 1024.98 1024.41 1023.69 1022.86 1022.01 1021.22 1020.55 1020.05 1019.74 1019.61 1019.63 1019.74 1019.88 1019.99 1020.04 1019.99 1019.87 1019.69 1019.49 1019.29 1019.13 1019.03 1018.97 1018.94 1018.91 1018.86 1018.79 1018.67 1018.54 1018.42 1018.33 1018.33 1018.42 1018.63 1018.95
1022.87 1023.39 1023.96 1024.54 1025.09 1025.54 1025.85 1025.95 1025.81 1025.42 1024.79 1023.98 1023.06 1022.11 1021.23 1020.50 1019.98 1019.67 1019.57 1019.64 1019.81 1019.99 1020.14 1020.19 1020.12 1019.95 1019.69 1019.39 1019.09 1018.83 1018.64 1018.50 1018.40 1018.32 1018.24 1018.12 1017.97 1017.80 1017.63 1017.51 1017.46 1017.51 1017.69 1017.99
1022.84 1023.39 1024.00 1024.65 1025.26 1025.79 1026.15 1026.29 1026.15 1025.74 1025.07 1024.19 1023.19 1022.17 1021.23 1020.46 1019.92 1019.62 1019.56 1019.67 1019.89 1020.12 1020.29 1020.35 1020.26 1020.03 1019.71 1019.32 1018.93 1018.58 1018.30 1018.09 1017.93 1017.80 1017.67 1017.52 1017.34 1017.13 1016.92 1016.75 1016.65 1016.66 1016.80 1017.06
1022.89 1023.44 1024.07 1024.74 1025.38 1025.94 1026.33 1026.47 1026.33 1025.90 1025.19 1024.27 1023.23 1022.17 1021.20 1020.42 1019.89 1019.62 1019.60 1019.75 1020.00 1020.27 1020.45 1020.50 1020.39 1020.12 1019.73 1019.27 1018.80 1018.37 1018.01 1017.73 1017.51 1017.34 1017.17 1016.99 1016.77 1016.52 1016.27 1016.06 1015.91 1015.87 1015.97 1016.20
1023.03 1023.56 1024.17 1024.81 1025.44 1025.97 1026.34 1026.47 1026.31 1025.85 1025.14 1024.21 1023.17 1022.12 1021.18 1020.43 1019.93 1019.69 1019.70 1019.89 1020.16 1020.43 1020.62 1020.65 1020.50 1020.18 1019.73 1019.20 1018.66 1018.16 1017.73 1017.39 1017.13 1016.91 1016.71 1016.49 1016.25 1015.97 1015.69 1015.43 1015.24 1015.16 1015.21 1015.41
1023.27 1023.74 1024.29 1024.86 1025.42 1025.88 1026.18 1026.26 1026.07 1025.61 1024.91 1024.02 1023.03 1022.05 1021.17 1020.48 1020.04 1019.85 1019.89 1020.09 1020.36 1020.61 1020.76 1020.75 1020.55 1020.17 1019.66 1019.08 1018.47 1017.91 1017.43 1017.04 1016.73 1016.48 1016.24 1016.00 1015.74 1015.44 1015.13 1014.85 1014.64 1014.52 1014.54 1014.71
1023.59 1023.98 1024.42 1024.88 1025.30 1025.65 1025.85 1025.86 1025.65 1025.20 1024.54 1023.73 1022.84 1021.96 1021.19 1020.60 1020.24 1020.09 1020.14 1020.33 1020.57 1020.77 1020.85 1020.77 1020.51 1020.07 1019.49 1018.85 1018.19 1017.58 1017.05 1016.62 1016.27 1015.99 1015.74 1015.48 1015.21 1014.91 1014.60 1014.31 1014.09 1013.96 1013.97 1014.12
1023.95 1024.24 1024.54 1024.84 1025.10 1025.30 1025.38 1025.32 1025.07 1024.65 1024.06 1023.37 1022.62 1021.90 1021.26 1020.79 1020.50 1020.40 1020.45 1020.59 1020.76 1020.87 1020.87 1020.69 1020.34 1019.82 1019.19 1018.49 1017.79 1017.13 1016.57 1016.10 1015.73 1015.43 1015.16 1014.90 1014.63 1014.34 1014.05 1013.79 1013.58 1013.47 1013.49 1013.65
1024.31 1024.47 1024.62 1024.74 1024.82 1024.86 1024.81 1024.67 1024.41 1024.03 1023.55 1023.00 1022.42 1021.87 1021.39 1021.04 1020.82 1020.74 1020.76 1020.84 1020.91 1020.90 1020.77 1020.49 1020.04 1019.44 1018.75 1018.00 1017.26 1016.57 1015.98 1015.49 1015.10 1014.78 1014.51 1014.26 1014.01 1013.75 1013.50 1013.28 1013.12 1013.05 1013.10 1013.29
1024.60 1024.64 1024.63 1024.57 1024.47 1024.35 1024.19 1023.98 1023.73 1023.42 1023.06 1022.67 1022.27 1021.90 1021.58 1021.33 1021.18 1021.09 1021.06 1021.04 1020.98 1020.84 1020.57 1020.16 1019.61 1018.94 1018.18 1017.40 1016.64 1015.93 1015.32 1014.81 1014.40 1014.07 1013.80 1013.56 1013.34 1013.13 1012.93 1012.78 1012.68 1012.68 1012.79 1013.03
1024.79 1024.71 1024.54 1024.32 1024.07 1023.81 1023.56 1023.32 1023.09 1022.87 1022.64 1022.42 1022.20 1022.00 1021.82 1021.67 1021.54 1021.43 1021.32 1021.18 1020.98 1020.68 1020.27 1019.74 1019.09 1018.36 1017.56 1016.76 1015.98 1015.26 1014.64 1014.12 1013.70 1013.36 1013.09 1012.87 1012.67 1012.51 1012.38 1012.30 1012.29 1012.36 1012.54 1012.84
1024.81 1024.63 1024.34 1023.99 1023.62 1023.27 1022.97 1022.73 1022.56 1022.43 1022.35 1022.29 1022.23 1022.18 1022.11 1022.02 1021.90 1021.74 1021.53 1021.26 1020.91 1020.47 1019.93 1019.29 1018.56 1017.78 1016.96 1016.14 1015.37 1014.65 1014.03 1013.50 1013.06 1012.71 1012.44 1012.22 1012.06 1011.94 1011.87 1011.86 1011.93 1012.09 1012.34 1012.69
1024.65 1024.39 1024.01 1023.58 1023.15 1022.77 1022.46 1022.26 1022.16 1022.15 1022.20 1022.28 1022.37 1022.43 1022.44 1022.37 1022.24 1022.01 1021.70 1021.30 1020.82 1020.25 1019.59 1018.87 1018.09 1017.28 1016.45 1015.65 1014.89 1014.18 1013.56 1013.02 1012.57 1012.20 1011.91 1011.69 1011.54 1011.45 1011.44 1011.49 1011.63 1011.86 1012.17 1012.57
1024.32 1024.01 1023.60 1023.14 1022.70 1022.33 1022.07 1021.93 1021.92 1022.02 1022.20 1022.40 1022.60 1022.73 1022.79 1022.73 1022.56 1022.27 1021.86 1021.34 1020.74 1020.07 1019.33 1018.55 1017.75 1016.93 1016.12 1015.34 1014.60 1013.90 1013.28 1012.73 1012.25 1011.86 1011.54 1011.31 1011.16 1011.09 1011.11 1011.21 1011.40 1011.68 1012.04 1012.47
1023.85 1023.53 1023.13 1022.71 1022.31 1022.01 1021.82 1021.78 1021.87 1022.08 1022.35 1022.65 1022.91 1023.09 1023.16 1023.09 1022.87 1022.51 1022.02 1021.41 1020.73 1019.98 1019.20 1018.40 1017.59 1016.79 1016.01 1015.25 1014.53 1013.85 1013.22 1012.65 1012.15 1011.72 1011.37 1011.11 1010.94 1010.87 1010.90 1011.03 1011.25 1011.56 1011.95 1012.40
1023.35 1023.06 1022.72 1022.37 1022.06 1021.85 1021.77 1021.83 1022.01 1022.30 1022.65 1022.99 1023.29 1023.49 1023.55 1023.45 1023.18 1022.76 1022.20 1021.54 1020.81 1020.03 1019.23 1018.43 1017.64 1016.87 1016.12 1015.39 1014.69 1014.02 1013.37 1012.78 1012.23 1011.76 1011.37 1011.07 1010.87 1010.79 1010.82 1010.95 1011.19 1011.51 1011.90 1012.34
1022.93 1022.71 1022.45 1022.21 1022.02 1021.92 1021.95 1022.10 1022.36 1022.70 1023.08 1023.44 1023.73 1023.90 1023.93 1023.79 1023.49 1023.02 1022.44 1021.75 1021.00 1020.22 1019.44 1018.66 1017.90 1017.16 1016.44 1015.73 1015.04 1014.35 1013.69 1013.06 1012.47 1011.94 1011.50 1011.16 1010.93 1010.82 1010.83 1010.96 1011.19 1011.51 1011.89 1012.31
1022.73 1022.59 1022.44 1022.32 1022.25 1022.27 1022.39 1022.61 1022.91 1023.26 1023.63 1023.95 1024.20 1024.33 1024.32 1024.13 1023.79 1023.31 1022.72 1022.04 1021.31 1020.55 1019.80 1019.05 1018.33 1017.61 1016.91 1016.21 1015.51 1014.80 1014.11 1013.43 1012.79 1012.22 1011.73 1011.34 1011.07 1010.93 1010.92 1011.03 1011.25 1011.54 1011.90 1012.30
1022.83 1022.80 1022.77 1022.76 1022.81 1022.92 1023.09 1023.34 1023.64 1023.96 1024.27 1024.53 1024.70 1024.76 1024.69 1024.47 1024.11 1023.63 1023.05 1022.40 1021.70 1020.99 1020.28 1019.57 1018.87 1018.17 1017.47 1016.76 1016.03 1015.30 1014.56 1013.83 1013.15 1012.52 1011.98 1011.55 1011.25 1011.08 1011.04 1011.13 1011.32 1011.60 1011.93 1012.29
Thickness
5547 5548 5547 5548 5546 5547 5546 5547 5551 5551 5546 5546 5553 5558 5564 5563 5562 5565 5569 5571 5572 5572 5572 5571 5570 5571 5571 5572 5572 5572 5572 5571 5570 5570 5569 5569 5569 5568 5567 5567 5566 5565 5565 5565
5542 5538 5538 5536 5534 5533 5535 5537 5541 5540 5536 5538 5544 5551 5558 5557 5557 5559 5562 5564 5564 5564 5563 5563 5562 5563 5563 5563 5563 5563 5563 5562 5562 5562 5561 5560 5559 5559 5558 5557 5556 5556 5556 5555
5534 5529 5526 5526 5526 5526 5528 5531 5533 5531 5530 5530 5534 5553 5555 5554 5552 5551 5553 5554 5556 5556 5556 5555 5555 5555 5555 5554 5554 5554 5554 5554 5553 5552 5551 5550 5550 5549 5548 5548 5547 5546 5546 5545
5521 5519 5517 5518 5518 5520 5523 5522 5521 5521 5524 5531 5527 5542 5557 5551 5548 5547 5547 5547 5547 5547 5547 5547 5546 5546 5546 5545 5544 5544 5544 5544 5544 5543 5542 5543 5544 5543 5542 5541 5539 5537 5536 5535
5515 5510 5510 5511 5511 5510 5513 5509 5510 5513 5514 5514 5520 5520 5551 5542 5543 5543 5541 5539 5538 5537 5537 5537 5537 5537 5536 5535 5534 5534 5534 5534 5533 5533 5533 5533 5534 5534 5532 5531 5529 5528 5527 5526
5505 5499 5499 5501 5499 5499 5497 5499 5500 5502 5505 5505 5516 5519 5542 5542 5537 5534 5531 5529 5527 5526 5526 5527 5527 5527 5526 5526 5525 5525 5525 5524 5523 5522 5522 5523 5523 5523 5523 5522 5521 5519 5518 5517
5500 5497 5492 5491 5493 5492 5493 5497 5502 5504 5504 5515 5506 5508 5529 5529 5523 5521 5520 5519 5518 5516 5516 5516 5517 5517 5516 5516 5516 5516 5516 5515 5514 5513 5512 5512 5512 5512 5513 5513 5512 5511 5509 5508
5498 5500 5489 5485 5488 5489 5489 5493 5498 5502 5510 5517 5496 5507 5525 5515 5509 5507 5507 5507 5506 5507 5507 5507 5507 5507 5506 5506 5506 5507 5506 5506 5505 5504 5502 5502 5501 5501 5502 5502 5501 5501 5500 5500
5494 5493 5480 5476 5475 5480 5482 5484 5484 5484 5477 5488 5509 5508 5510 5507 5503 5500 5499 5498 5498 5497 5497 5497 5496 5496 5497 5497 5497 5497 5496 5495 5495 5494 5492 5492 5491 5491 5491 5491 5491 5490 5490 5489
5481 5478 5473 5467 5468 5467 5472 5474 5473 5476 5483 5496 5508 5507 5516 5507 5503 5498 5494 5491 5490 5488 5488 5487 5487 5487 5487 5487 5487 5486 5486 5485 5484 5483 5482 5481 5481 5481 5481 5481 5481 5480 5480 5479
5469 5468 5464 5462 5462 5467 5461 5460 5465 5470 5471 5485 5495 5509 5503 5499 5495 5490 5486 5483 5481 5479 5478 5477 5477 5477 5476 5476 5476 5476 5476 5475 5474 5473 5472 5471 5471 5471 5471 5471 5471 5471 5470 5470
5459 5462 5462 5458 5448 5445 5453 5458 5458 5464 5462 5464 5478 5495 5488 5483 5480 5476 5474 5472 5471 5469 5468 5467 5467 5467 5467 5466 5466 5466 5465 5465 5465 5464 5463 5462 5462 5462 5461 5461 5461 5461 5461 5460
5447 5448 5457 5459 5447 5435 5436 5439 5438 5440 5450 5457 5469 5488 5476 5471 5468 5465 5462 5462 5461 5460 5458 5458 5458 5458 5459 5458 5457 5456 5456 5455 5455 5455 5454 5453 5453 5453 5452 5452 5452 5452 5451 5451
5444 5442 5451 5463 5463 5446 5434 5429 5427 5431 5445 5456 5464 5476 5473 5469 5464 5460 5456 5454 5453 5451 5450 5450 5449 5449 5448 5448 5447 5447 5446 5446 5446 5446 5445 5445 5444 5444 5443 5443 5442 5442 5441 5441
5433 5436 5430 5432 5429 5428 5431 5429 5423 5424 5441 5447 5461 5456 5465 5461 5455 5451 5447 5445 5444 5444 5443 5442 5441 5439 5438 5438 5438 5437 5437 5436 5436 5437 5437 5436 5435 5434 5434 5433 5433 5432 5431 5431
5419 5422 5415 5419 5418 5415 5417 5426 5425 5423 5429 5435 5439 5445 5454 5449 5443 5441 5440 5437 5437 5437 5436 5434 5432 5430 5429 5429 5428 5428 5428 5428 5428 5428 5428 5427 5426 5425 5425 5424 5423 5422 5422 5421
5409 5405 5414 5429 5410 5408 5428 5432 5423 5423 5425 5429 5437 5448 5445 5437 5435 5434 5433 5431 5429 5427 5426 5424 5423 5422 5421 5419 5418 5418 5418 5419 5419 5419 5419 5418 5417 5416 5416 5415 5414 5413 5413 5412
5394 5398 5404 5413 5406 5418 5444 5423 5423 5420 5422 5421 5426 5430 5427 5425 5423 5422 5422 5422 5421 5419 5416 5415 5414 5413 5412 5410 5409 5409 5409 5410 5411 5411 5410 5410 5409 5408 5407 5406 5405 5405 5404 5404
5389 5392 5398 5402 5414 5427 5430 5416 5411 5411 5419 5419 5416 5417 5416 5412 5414 5421 5418 5413 5411 5410 5408 5407 5405 5404 5403 5402 5401 5401 5402 5402 5402 5403 5403 5402 5401 5400 5399 5398 5397 5396 5396 5395
5375 5378 5389 5391 5404 5418 5431 5410 5402 5405 5416 5417 5408 5407 5406 5404 5417 5423 5409 5403 5401 5399 5398 5398 5397 5395 5395 5394 5393 5393 5394 5395 5396 5396 5396 5395 5393 5392 5391 5391 5389 5388 5387 5387
5373 5375 5380 5386 5394 5413 5410 5394 5393 5408 5419 5407 5401 5399 5397 5401 5406 5404 5398 5395 5393 5391 5390 5389 5389 5388 5388 5387 5386 5387 5388 5388 5389 5388 5388 5387 5386 5384 5384 5383 5381 5380 5379 5378
5384 5383 5377 5380 5385 5404 5393 5387 5396 5405 5398 5394 5393 5392 5391 5392 5391 5390 5388 5387 5385 5383 5382 5381 5381 5381 5381 5380 5379 5380 5381 5382 5381 5380 5380 5379 5379 5377 5376 5375 5373 5372 5371 5370
5377 5384 5387 5386 5397 5393 5385 5387 5388 5385 5387 5387 5387 5384 5382 5381 5382 5381 5380 5379 5377 5376 5375 5374 5373 5374 5374 5373 5373 5374 5374 5374 5373 5373 5372 5372 5371 5370 5369 5367 5366 5365 5363 5363
5369 5359 5365 5367 5382 5381 5378 5377 5377 5377 5377 5378 5376 5374 5373 5373 5373 5372 5372 5371 5370 5369 5368 5367 5366 5367 5367 5366 5366 5366 5366 5366 5366 5366 5365 5365 5364 5363 5362 5360 5359 5358 5357 5356
5371 5355 5358 5362 5372 5373 5377 5374 5373 5371 5368 5367 5367 5366 5365 5364 5365 5364 5363 5364 5363 5362 5361 5360 5360 5360 5360 5359 5358 5359 5358 5358 5358 5359 5358 5357 5356 5355 5354 5353 5352 5351 5351 5350
5359 5356 5361 5375 5374 5370 5375 5370 5365 5362 5362 5361 5360 5359 5358 5357 5357 5356 5356 5356 5356 5355 5354 5353 5353 5352 5352 5351 5351 5351 5351 5351 5351 5352 5352 5351 5349 5348 5347 5347 5346 5344 5343 5342